Wind_Speed
35 35 36 36 36 36 35 35 36 35 36 35 34 33 34 33 32 32 31 30 28 26 25 24 22 21 20 19 18 18 18 18 20 21 22 22 22 22 21 20 19 17 16
38 38 38 38 37 37 37 37 36 36 35 35 34 33 33 33 32 32 31 30 28 27 26 25 23 22 21 20 19 18 18 18 18 18 20 22 23 23 23 23 22 20 19
40 40 40 39 38 37 37 37 37 36 35 35 35 34 33 32 32 31 31 30 28 28 28 26 24 23 22 21 20 19 18 18 17 17 18 19 21 23 24 24 24 23 22
41 41 40 39 38 37 35 35 37 36 34 34 33 33 33 31 32 31 31 31 29 28 27 26 26 25 23 22 21 20 19 19 18 17 17 19 20 21 23 24 25 25 24
41 41 40 38 37 36 34 34 34 35 34 33 32 32 31 31 32 32 31 30 28 27 27 26 26 25 24 22 21 20 19 18 17 16 16 17 18 20 22 23 25 26 27
42 41 39 38 37 35 34 34 34 34 34 33 34 32 32 33 33 32 31 30 28 27 27 26 26 25 23 22 20 19 18 16 15 15 15 15 16 18 20 20 22 25 27
41 40 40 39 36 35 35 34 33 33 33 33 32 32 32 31 31 32 31 30 29 28 28 27 27 25 23 22 20 18 17 15 14 13 13 14 13 14 17 18 19 20 23
41 41 41 39 37 37 37 35 34 33 32 31 30 30 31 32 31 30 31 30 29 29 29 28 26 25 24 22 20 18 17 15 13 12 12 12 12 12 14 16 17 18 20
42 42 41 40 39 38 37 35 34 33 30 30 31 31 32 34 32 30 30 30 30 30 29 28 26 25 25 23 21 19 18 16 14 13 12 11 11 11 12 14 16 18 19
43 43 43 42 41 40 38 37 36 34 32 33 33 33 32 32 31 30 31 30 30 31 30 29 28 26 26 24 22 21 19 17 15 14 12 11 11 11 11 13 14 16 18
44 44 43 43 42 42 40 40 39 37 36 35 34 33 34 34 33 33 31 30 30 31 31 31 30 28 27 25 24 23 21 19 16 15 14 12 12 12 12 13 14 15 17
46 46 45 44 43 43 42 42 41 40 39 38 37 36 35 35 35 35 34 32 32 32 32 32 32 30 29 28 27 26 24 21 19 17 15 14 13 13 13 13 14 16 17
46 46 47 46 45 45 44 44 43 43 42 41 41 39 38 38 37 37 36 35 35 34 34 34 34 33 32 30 29 29 26 24 21 19 17 15 15 14 14 14 15 16 17
45 45 46 46 46 46 46 46 45 46 45 45 45 43 41 40 38 38 37 37 37 36 36 36 35 35 35 33 32 31 29 27 24 21 19 17 16 16 15 15 15 16 17
46 46 47 47 47 47 47 47 48 48 48 48 48 48 46 43 41 41 39 39 39 37 38 38 37 37 37 35 34 33 32 30 27 24 22 20 18 17 16 16 16 17 17
48 48 48 49 49 48 48 48 48 49 49 50 51 51 50 48 46 44 44 42 41 40 40 40 39 38 38 38 37 36 34 33 30 27 24 22 20 19 17 17 17 17 17
48 49 50 51 51 51 51 51 50 51 51 51 52 53 53 53 51 49 47 46 46 44 43 42 40 40 40 40 40 39 37 36 33 31 27 25 23 20 19 18 17 17 17
50 51 51 52 52 52 52 52 52 52 53 53 53 54 55 56 56 55 53 51 49 48 46 44 42 41 42 41 41 41 39 38 36 33 31 28 25 22 21 20 19 18 18
51 51 51 52 52 52 53 53 53 54 54 54 54 54 55 57 58 58 57 56 54 51 49 48 45 43 43 42 42 42 41 39 37 35 33 30 27 24 22 21 20 19 19
50 51 51 50 51 52 53 53 53 54 54 54 54 55 55 57 59 60 60 59 59 56 53 51 49 47 46 44 43 42 42 41 39 37 34 32 29 26 24 23 21 20 20
49 49 49 49 50 51 52 52 53 53 53 54 54 54 55 56 57 58 59 60 60 58 57 56 52 49 48 46 44 43 42 41 40 39 37 34 31 28 26 24 23 22 21
48 48 47 47 47 47 47 48 49 50 50 51 52 53 54 55 56 57 58 59 59 59 58 57 56 54 52 49 46 44 43 42 41 39 38 36 33 30 28 25 24 23 22
47 46 44 43 42 41 42 43 44 45 46 47 48 50 52 53 55 55 56 57 57 58 58 58 57 55 54 52 49 45 44 42 41 40 39 37 35 33 30 27 25 24 23
43 41 39 37 36 35 36 37 39 41 42 44 45 45 47 49 51 52 54 54 55 56 58 58 58 56 55 54 53 49 45 43 41 40 39 36 35 34 31 28 26 25 24
39 36 33 32 30 30 30 31 33 35 37 39 41 42 42 44 46 48 49 50 52 53 55 55 56 57 55 54 52 52 49 44 43 42 39 37 35 34 32 30 28 26 25
34 31 28 26 25 24 24 26 28 31 32 35 37 39 39 39 41 43 44 46 47 48 49 51 52 52 54 54 52 50 49 45 43 42 40 39 37 35 32 31 29 27 26
Wind_Direction
295 295 294 295 293 288 284 281 280 276 273 267 262 258 255 255 255 257 253 250 250 248 247 249 248 248 249 253 254 254 254 254 250 248 246 244 244 243 242 243 244 244 243
292 293 291 292 290 288 285 282 280 277 274 269 264 259 256 253 251 253 253 252 251 249 247 247 246 246 247 250 252 254 254 252 250 249 250 248 245 245 242 241 242 242 242
290 291 291 290 288 285 283 282 279 277 275 271 266 261 257 254 251 251 253 252 250 248 245 244 244 245 246 247 250 252 252 251 251 252 252 251 247 245 243 241 241 241 241
289 289 289 289 286 285 283 281 278 276 275 271 266 261 256 252 250 250 251 249 247 248 246 243 244 246 245 246 248 250 251 251 251 251 250 251 249 246 243 241 241 241 241
287 287 287 286 285 281 280 280 278 275 274 269 264 261 256 252 251 249 250 248 247 245 243 243 244 243 242 244 247 248 247 248 248 248 249 252 251 249 246 244 242 242 241
286 286 284 285 283 279 278 278 276 276 273 269 263 259 255 253 250 246 246 247 245 243 241 240 241 239 240 241 241 243 245 245 243 244 248 250 251 251 249 246 245 244 242
285 284 283 283 281 278 277 278 277 275 271 268 261 255 254 251 247 244 243 242 241 240 240 238 235 235 235 234 236 239 240 238 239 241 244 248 252 252 250 248 248 246 243
284 282 282 281 279 278 276 275 274 273 269 264 257 252 249 246 244 243 241 240 239 240 238 234 231 230 231 231 231 233 233 233 236 240 243 249 251 255 250 248 249 250 246
283 282 280 278 277 275 274 271 270 268 267 260 253 251 250 246 244 242 239 238 239 237 234 233 230 227 227 227 227 228 228 230 232 236 241 246 249 254 252 250 250 250 249
283 281 279 277 276 274 272 270 269 265 263 258 253 249 247 246 243 240 238 237 237 235 231 229 228 224 224 223 222 224 225 226 229 233 239 242 246 252 255 256 255 254 252
283 281 278 276 275 272 270 268 267 264 260 256 253 252 249 246 243 239 236 235 235 233 230 229 227 223 223 222 219 220 222 225 229 234 240 243 247 252 257 260 260 261 257
284 282 279 276 275 272 270 267 265 263 259 255 252 252 249 246 242 238 235 233 232 231 229 227 226 223 223 221 219 220 222 225 229 233 239 245 250 254 258 263 266 263 261
285 283 281 278 275 272 270 267 265 262 259 255 252 250 247 244 242 239 236 234 232 231 230 227 226 224 223 221 221 221 223 225 228 233 238 245 251 256 261 264 268 268 266
287 284 282 280 276 273 270 267 264 261 258 255 252 249 247 245 242 239 236 235 233 231 230 228 227 226 224 222 223 224 225 226 229 232 236 242 249 256 261 265 268 269 270
288 286 283 280 277 273 270 267 263 260 257 254 251 247 246 245 242 237 235 234 232 230 229 228 227 227 226 224 225 225 226 227 230 232 236 241 247 254 259 264 269 271 272
288 286 283 280 277 274 270 267 264 260 256 253 250 248 246 244 242 239 235 232 230 229 228 230 229 226 227 226 226 226 227 228 230 232 236 241 246 251 258 263 269 273 274
287 284 282 279 277 273 270 266 262 259 256 253 250 247 245 243 241 240 236 233 231 230 228 229 230 229 228 227 226 226 227 227 229 232 235 240 245 249 257 263 267 271 274
288 285 281 278 274 271 268 265 261 258 255 252 250 247 244 242 241 240 238 237 234 231 229 229 229 229 230 228 228 227 227 227 229 231 234 238 243 248 255 261 266 270 273
289 285 281 277 273 270 266 263 260 257 254 251 249 247 244 242 240 240 239 238 236 233 230 230 229 229 230 230 230 229 229 228 228 231 233 236 241 246 253 259 264 267 271
291 287 282 277 273 269 266 262 258 256 253 250 247 245 243 241 240 240 239 238 237 235 233 231 230 231 231 232 232 231 231 231 230 230 232 234 238 244 249 256 261 265 269
293 289 285 279 275 271 266 261 257 254 251 249 246 243 242 240 239 238 238 238 237 235 234 232 232 231 231 231 231 231 231 232 232 231 232 234 237 242 247 252 257 263 268
296 292 288 283 277 273 267 261 256 251 249 247 244 241 239 238 237 236 236 237 237 235 234 233 233 232 232 232 232 232 231 232 232 232 232 234 236 240 244 250 254 260 265
300 296 292 286 280 273 265 259 254 249 246 243 241 239 238 236 235 235 236 236 236 236 235 234 233 233 233 232 232 233 232 232 233 233 233 234 235 239 242 247 252 258 264
306 301 295 288 281 273 265 259 252 247 244 240 238 237 236 234 234 234 234 236 236 235 236 235 235 234 233 232 233 232 233 234 234 234 233 234 235 237 239 244 250 256 262
312 306 299 292 284 274 267 259 251 245 239 236 234 232 232 231 231 232 233 234 235 235 235 236 235 234 233 232 232 233 234 235 235 234 232 232 234 236 238 243 248 254 260
317 312 306 299 289 277 268 257 250 241 234 231 229 228 227 227 229 229 230 232 233 233 233 233 233 233 234 234 234 233 233 233 232 232 232 232 233 236 239 242 246 252 257
Height
5862 5860 5858 5855 5853 5852 5851 5851 5851 5850 5851 5852 5853 5855 5857 5859 5861 5863 5863 5864 5865 5868 5872 5874 5876 5878 5880 5882 5884 5885 5887 5888 5890 5892 5894 5896 5898 5900 5902 5904 5906 5908 5910
5855 5853 5851 5849 5847 5844 5843 5843 5843 5842 5842 5843 5844 5846 5849 5851 5854 5856 5857 5858 5859 5863 5866 5869 5871 5874 5876 5878 5880 5881 5883 5884 5886 5888 5889 5891 5894 5896 5898 5901 5903 5905 5907
5847 5845 5843 5842 5839 5837 5836 5834 5834 5834 5834 5835 5836 5839 5841 5844 5846 5849 5851 5853 5855 5858 5861 5864 5866 5869 5871 5873 5875 5877 5879 5881 5882 5884 5885 5887 5889 5891 5894 5896 5899 5901 5904
5838 5836 5835 5833 5831 5829 5828 5827 5826 5826 5826 5827 5829 5830 5833 5836 5839 5842 5844 5846 5850 5853 5855 5858 5861 5863 5866 5869 5871 5873 5875 5877 5878 5880 5881 5883 5884 5887 5889 5892 5894 5897 5900
5828 5827 5826 5825 5823 5821 5820 5819 5819 5819 5819 5820 5821 5823 5825 5828 5831 5834 5837 5840 5843 5847 5850 5852 5855 5858 5861 5863 5866 5868 5870 5872 5874 5875 5877 5878 5880 5882 5885 5887 5889 5892 5895
5819 5818 5817 5816 5814 5813 5813 5812 5811 5811 5812 5812 5813 5815 5817 5820 5823 5826 5830 5833 5837 5840 5843 5846 5850 5852 5855 5858 5861 5864 5866 5868 5870 5871 5873 5874 5876 5878 5880 5882 5884 5887 5889
5810 5809 5807 5807 5806 5805 5804 5804 5803 5804 5804 5804 5806 5808 5810 5812 5815 5818 5823 5826 5830 5833 5837 5841 5844 5847 5850 5853 5856 5859 5862 5864 5866 5868 5869 5870 5872 5873 5875 5877 5879 5882 5884
5801 5799 5798 5797 5797 5796 5795 5795 5796 5796 5797 5797 5798 5800 5803 5806 5808 5812 5816 5819 5823 5827 5830 5834 5837 5841 5845 5849 5852 5855 5858 5860 5862 5864 5865 5866 5868 5869 5871 5873 5875 5877 5879
5791 5789 5788 5787 5787 5787 5787 5787 5787 5787 5788 5789 5791 5793 5796 5798 5802 5805 5809 5812 5816 5820 5823 5827 5832 5836 5840 5844 5847 5851 5853 5856 5858 5860 5861 5863 5864 5865 5867 5868 5870 5872 5874
5780 5779 5778 5777 5777 5777 5778 5778 5779 5779 5780 5781 5783 5785 5788 5790 5794 5797 5801 5806 5809 5814 5817 5822 5826 5830 5834 5838 5842 5846 5849 5852 5854 5856 5858 5859 5860 5862 5863 5864 5866 5867 5869
5768 5767 5766 5766 5766 5766 5767 5768 5769 5770 5771 5773 5775 5777 5779 5782 5785 5790 5794 5798 5802 5806 5811 5815 5820 5824 5828 5833 5837 5841 5844 5847 5849 5852 5854 5855 5857 5858 5859 5860 5861 5863 5864
5755 5754 5753 5754 5754 5754 5755 5756 5758 5760 5762 5764 5766 5769 5771 5774 5777 5781 5786 5790 5794 5799 5803 5808 5813 5818 5823 5827 5831 5835 5839 5842 5845 5847 5849 5851 5853 5854 5855 5856 5857 5858 5859
5743 5741 5739 5740 5741 5742 5742 5744 5746 5748 5750 5753 5756 5759 5762 5765 5768 5772 5777 5781 5786 5791 5796 5801 5806 5811 5816 5821 5825 5829 5833 5837 5840 5842 5845 5847 5848 5850 5851 5851 5852 5853 5854
5730 5728 5727 5726 5726 5728 5729 5730 5732 5734 5737 5741 5744 5748 5752 5756 5759 5763 5768 5772 5778 5783 5788 5793 5798 5803 5808 5814 5818 5822 5826 5831 5834 5837 5840 5842 5843 5845 5846 5847 5848 5849 5849
5717 5715 5713 5712 5712 5712 5714 5715 5717 5720 5723 5727 5731 5736 5740 5745 5749 5754 5758 5763 5768 5774 5779 5783 5789 5795 5800 5806 5810 5815 5820 5824 5828 5831 5834 5836 5838 5840 5841 5842 5843 5844 5844
5704 5701 5699 5697 5697 5697 5698 5700 5702 5704 5708 5712 5716 5721 5727 5732 5738 5743 5748 5753 5758 5764 5769 5774 5779 5786 5791 5797 5802 5807 5812 5817 5821 5824 5827 5830 5833 5835 5836 5837 5838 5838 5839
5690 5687 5684 5682 5681 5681 5682 5684 5686 5688 5692 5696 5701 5706 5712 5718 5724 5730 5736 5742 5748 5754 5760 5765 5770 5777 5782 5788 5793 5799 5804 5809 5813 5817 5821 5824 5827 5829 5831 5832 5832 5833 5834
5674 5670 5667 5665 5664 5664 5665 5666 5669 5672 5675 5680 5685 5690 5696 5703 5710 5716 5723 5730 5736 5743 5750 5755 5761 5767 5772 5777 5783 5789 5795 5801 5805 5809 5813 5817 5820 5823 5825 5826 5827 5828 5828
5657 5653 5650 5647 5646 5645 5646 5648 5650 5654 5658 5663 5668 5674 5680 5686 5693 5701 5708 5716 5723 5730 5737 5744 5751 5756 5762 5767 5774 5780 5786 5792 5797 5801 5806 5810 5813 5816 5819 5820 5821 5822 5823
5638 5634 5631 5629 5627 5627 5627 5629 5631 5635 5639 5645 5650 5657 5663 5670 5677 5684 5692 5700 5708 5716 5724 5732 5739 5746 5752 5758 5764 5770 5777 5783 5788 5794 5798 5802 5806 5809 5812 5814 5815 5816 5817
5620 5615 5612 5609 5608 5607 5607 5609 5612 5616 5621 5626 5633 5639 5646 5653 5661 5668 5676 5685 5693 5702 5710 5719 5727 5734 5741 5747 5754 5760 5767 5773 5779 5785 5790 5795 5799 5803 5805 5807 5809 5810 5811
5603 5598 5593 5590 5588 5587 5588 5590 5593 5597 5603 5609 5615 5622 5629 5637 5645 5653 5661 5669 5678 5687 5696 5705 5714 5722 5729 5737 5743 5750 5757 5763 5770 5777 5782 5787 5792 5795 5798 5801 5803 5804 5805
5587 5581 5576 5572 5571 5570 5570 5572 5575 5580 5586 5593 5600 5606 5613 5622 5630 5639 5647 5655 5664 5672 5682 5692 5701 5709 5717 5725 5733 5740 5747 5753 5761 5767 5774 5779 5784 5788 5791 5794 5796 5798 5799
5572 5566 5561 5557 5555 5555 5555 5557 5560 5565 5571 5578 5585 5592 5599 5607 5616 5625 5633 5641 5649 5658 5668 5678 5688 5696 5703 5712 5721 5729 5736 5744 5751 5758 5765 5771 5775 5779 5783 5786 5789 5791 5793
5561 5554 5549 5545 5543 5543 5543 5545 5548 5553 5559 5566 5572 5580 5587 5595 5603 5612 5621 5630 5638 5645 5653 5664 5673 5682 5690 5699 5709 5717 5726 5734 5741 5748 5756 5762 5767 5771 5775 5779 5782 5784 5786
5551 5545 5540 5536 5534 5533 5533 5535 5537 5542 5548 5555 5562 5569 5577 5584 5592 5600 5609 5618 5625 5633 5642 5651 5660 5669 5679 5687 5697 5706 5715 5723 5731 5739 5746 5753 5758 5764 5768 5771 5774 5777 5779